Location: Axtheid
(49.6213°N, 11.8205°E)
Time: 12:25:45
(UTC+00:00)

USA 234 - Pass Details

Date: 24 January 2021
Orbit: 1100 x 1107 km, 123.0° (Epoch: 25 February)

Event Time Altitude Azimuth Distance (km) Brightness Sun altitude
Exits shadow 19:16:43 67° 354° (N) 1,189 3.3 -32.4°
Drops below altitude 10° 19:22:42 10° 303° (WNW) 2,968 6.2 -33.3°
Sets 19:25:12 0° 301° (WNW) 3,928 7.1 -33.7°
